GFSNW_700_spd_000.txt.gz
Wind_Speed
16 10 7 4 6 7 9 16 17 18 18 23 30 34 31 26 21 19 16 12 13 14 14 12 8 16 8 13 15 14 11 8 6 6 8 10 9 9 8 5 4 7 2 15
12 15 8 5 5 10 12 15 19 12 12 17 25 28 25 23 19 15 12 11 10 14 13 6 12 11 13 10 9 7 8 5 3 3 7 10 11 11 14 13 13 21 7 13
11 11 14 6 7 9 14 15 15 10 12 18 21 21 18 18 16 13 12 14 14 14 10 7 9 9 8 8 6 7 7 9 8 3 1 4 8 9 11 17 17 22 30 34
8 9 8 6 9 8 13 14 13 12 9 10 12 9 12 9 8 9 8 6 5 7 6 6 7 7 6 5 4 5 7 12 15 20 21 23 25 24 28 30 33 33 41 39
6 7 4 10 8 10 10 12 12 11 2 10 8 4 3 4 5 7 7 5 4 3 3 5 3 5 8 10 10 13 15 16 21 28 28 29 30 34 36 37 38 41 42 44
6 9 7 5 7 8 9 8 9 8 4 2 4 5 1 1 2 2 3 1 1 3 4 7 9 12 14 16 17 18 21 21 15 20 21 22 22 20 10 11 17 24 27 28
9 8 11 9 7 9 8 8 10 8 5 4 4 4 4 2 2 2 4 7 9 11 14 17 18 21 23 25 26 28 30 27 16 16 15 7 6 5 11 25 25 23 28 28
10 11 12 15 13 11 12 11 8 8 7 6 6 3 2 3 5 4 6 8 10 11 12 15 14 17 16 11 13 18 24 24 11 7 12 24 28 15 16 23 28 29 32 32
14 14 16 16 19 17 14 13 17 13 8 6 7 7 3 4 5 5 5 3 6 8 10 10 6 4 11 6 6 8 12 17 17 11 7 7 12 21 28 24 32 23 21 26
17 17 18 19 20 21 21 18 18 17 17 15 14 8 6 7 6 8 7 7 6 12 12 12 12 13 14 8 9 8 12 17 28 29 19 17 24 23 22 16 22 25 24 26
16 18 19 19 21 22 24 22 23 22 21 19 17 15 11 11 12 11 8 13 12 12 10 8 9 13 13 12 13 12 17 13 17 16 12 16 12 20 24 25 27 27 29 31
16 16 17 20 22 24 25 24 23 23 24 21 15 14 15 13 15 18 21 19 19 17 13 14 15 20 21 23 18 19 24 27 22 19 26 34 43 42 34 38 45 49 42 42
16 16 15 17 18 21 24 25 24 23 25 23 21 22 24 25 24 26 27 21 19 23 19 23 31 27 31 32 27 24 26 24 35 40 44 42 38 36 41 45 44 49 49 45
16 17 15 14 14 15 17 21 23 25 24 29 25 13 13 13 18 20 21 25 23 24 31 36 38 39 31 40 42 38 36 32 42 51 46 45 39 40 41 42 45 47 43 43
16 17 16 15 16 17 17 16 17 25 22 24 23 16 16 19 20 27 29 29 28 29 29 32 37 38 37 45 48 51 44 40 39 50 36 37 42 38 40 41 40 40 39 38
16 14 14 13 14 17 18 17 14 16 22 28 33 20 16 21 24 27 25 31 32 22 30 35 39 39 34 34 41 42 48 44 38 41 38 38 38 39 39 38 36 33 32 34
11 9 9 8 8 9 11 13 9 9 14 21 17 20 16 14 4 7 14 17 22 24 31 37 39 40 39 47 52 46 39 38 41 38 36 35 31 36 40 40 36 34 34 36
11 10 9 8 9 9 9 10 13 14 12 15 12 16 19 18 20 20 16 17 18 29 35 38 38 37 36 38 43 34 35 39 38 35 32 33 33 36 38 37 37 35 31 28
13 12 12 11 12 13 13 14 16 19 21 12 18 20 16 15 13 14 18 24 29 27 33 29 28 33 30 40 34 30 28 28 31 30 28 30 32 32 36 34 27 25 23 22
14 12 13 14 15 15 15 17 18 19 25 31 36 32 28 24 22 18 13 11 12 19 25 20 33 44 40 32 28 26 21 22 24 23 20 25 28 25 24 25 24 20 20 20
14 13 13 15 16 16 18 14 10 9 12 18 17 13 26 20 24 24 13 10 9 11 14 15 18 34 35 27 27 29 27 23 23 23 17 23 26 23 22 19 21 20 22 25
14 14 15 15 15 13 11 9 9 12 8 8 7 8 11 15 17 19 13 15 9 10 14 12 21 28 27 28 27 26 25 23 23 23 21 23 20 17 17 18 21 24 28 30
17 17 16 10 10 15 8 10 12 8 10 15 17 15 14 15 14 13 12 10 13 15 11 19 31 28 30 31 21 21 26 23 20 19 18 17 17 18 19 21 26 30 32 34
18 19 19 15 12 9 8 8 8 11 15 19 21 20 14 17 19 16 10 14 12 9 17 35 32 20 23 21 24 26 21 18 16 16 17 19 21 22 25 28 32 33 34 36
24 21 17 22 19 19 17 20 24 21 21 24 24 23 26 24 18 15 12 8 11 12 26 23 20 22 23 25 25 20 16 16 17 18 20 22 25 27 29 32 33 35 37 38
29 31 26 27 26 27 30 26 23 22 24 27 26 20 15 23 14 14 14 12 22 28 27 25 25 30 29 25 19 17 17 17 19 21 24 27 29 31 33 34 35 37 39 40
38 45 40 39 39 38 34 30 27 25 28 29 29 24 19 19 15 18 22 33 39 36 33 29 30 33 22 19 19 19 18 19 22 25 28 30 32 34 35 36 37 40 40 41

GFSNW_700_spd_003.txt.gz
Wind_Speed
11 9 5 2 5 6 8 13 14 14 22 20 23 21 25 30 24 11 17 14 18 12 15 13 7 8 10 16 17 13 14 6 7 7 10 12 12 8 11 7 6 9 2 11
6 10 5 3 5 8 11 13 12 16 22 16 30 29 26 25 20 15 15 11 12 18 15 7 14 10 13 16 18 11 11 4 8 2 6 9 9 11 11 11 10 14 7 7
5 7 8 5 5 9 11 15 8 9 14 26 20 20 19 17 14 12 12 13 16 15 9 9 13 13 11 10 8 7 5 5 3 5 5 3 3 7 10 14 18 20 25 29
4 5 6 4 7 11 12 15 9 12 14 16 15 12 16 12 10 13 11 10 12 10 7 9 11 9 7 6 5 4 3 3 6 8 10 13 14 18 20 23 29 29 37 36
6 2 3 4 8 10 11 13 8 6 9 9 11 11 9 8 10 10 9 10 9 7 7 8 9 7 6 7 7 8 9 9 16 21 20 17 20 27 28 31 34 37 40 42
8 3 2 2 9 10 10 11 9 7 3 5 6 6 6 8 9 6 5 5 6 6 6 7 6 7 8 10 10 10 13 7 9 11 9 14 20 18 13 13 17 19 23 25
9 7 6 6 5 9 10 11 12 11 9 10 11 10 8 8 7 8 8 7 7 7 7 8 9 11 13 15 16 19 17 10 7 13 12 6 7 6 12 18 21 22 26 26
11 10 9 11 10 9 10 11 11 13 13 13 12 11 9 8 6 6 5 6 6 6 6 5 2 4 2 3 6 10 14 16 9 6 11 18 22 9 14 17 21 23 26 24
14 13 13 13 14 14 14 13 12 12 11 12 13 12 11 8 7 6 6 3 2 1 2 1 2 1 6 3 4 4 6 8 13 7 6 5 5 16 22 23 32 9 7 18
14 17 17 16 17 17 19 18 14 15 12 11 14 15 11 9 9 9 6 7 4 4 6 6 6 6 6 5 5 5 9 9 16 19 15 18 21 22 26 13 21 25 30 36
13 16 20 20 19 21 19 20 20 19 18 16 17 18 13 10 10 11 10 9 9 8 9 7 7 8 8 9 12 10 10 9 12 10 12 17 9 13 22 26 32 38 40 42
15 15 17 20 23 22 21 19 18 18 18 14 14 18 20 19 19 15 15 15 15 9 7 7 6 12 17 17 17 21 18 22 17 22 23 27 31 33 39 45 44 39 38 40
17 17 18 20 21 24 25 22 20 21 20 19 19 19 22 23 22 23 22 20 20 20 15 18 20 20 21 20 19 18 20 23 34 32 38 37 33 33 36 41 43 42 43 44
18 19 19 19 19 21 22 21 23 22 22 23 24 19 15 12 16 18 17 18 16 16 19 23 27 33 26 26 26 26 30 32 42 39 39 42 33 25 29 34 38 37 41 45
19 19 20 20 19 17 16 13 13 17 19 14 11 10 17 24 25 22 20 23 24 24 25 27 28 32 30 36 36 44 40 40 38 45 34 37 40 40 41 42 45 43 43 43
20 20 20 20 20 18 17 16 16 16 16 21 24 12 15 23 23 22 24 27 24 27 30 31 35 35 28 26 37 40 35 32 28 34 33 36 37 40 37 36 39 39 40 41
19 19 19 19 18 17 17 15 11 12 15 19 12 8 13 11 12 15 22 23 23 24 26 31 32 34 32 40 48 28 22 25 29 30 29 33 36 37 37 33 35 36 36 45
17 18 18 17 16 16 16 15 15 14 14 14 8 10 10 10 10 17 19 21 23 27 30 33 35 34 36 34 33 29 29 28 28 28 31 34 36 38 37 33 33 38 40 38
18 18 17 17 18 17 14 14 15 16 17 9 14 17 13 11 12 16 21 22 24 25 30 32 24 25 27 34 30 24 21 26 29 31 32 35 36 36 33 31 33 29 28 28
21 20 18 18 18 16 16 17 17 17 23 25 27 23 23 19 18 17 15 15 14 17 21 19 27 42 35 25 22 21 22 25 30 32 30 31 32 31 31 26 27 25 26 24
21 21 20 18 14 13 14 10 10 12 11 16 21 22 26 20 22 22 12 10 9 10 16 18 15 33 26 20 21 22 24 26 26 26 27 29 29 29 28 30 29 26 26 27
21 20 19 17 15 10 10 9 10 11 10 9 9 9 10 19 20 17 10 15 10 11 14 10 18 23 28 29 27 24 26 25 27 30 30 26 24 21 26 26 25 27 27 28
23 20 17 9 12 16 9 11 8 6 5 6 5 8 12 14 14 12 12 10 14 16 11 19 28 27 27 29 33 27 28 32 33 31 26 23 19 19 20 23 25 27 29 31
26 21 19 11 10 9 18 19 8 7 5 7 11 15 12 14 14 14 11 14 15 12 24 34 33 32 26 29 33 31 34 35 30 23 24 23 21 21 23 25 28 30 33 36
26 20 13 22 23 22 15 13 12 11 14 16 15 17 18 18 16 14 12 8 10 9 18 21 25 27 33 35 34 33 37 27 25 24 23 23 24 25 27 29 32 34 37 38
32 28 22 17 14 13 10 10 18 16 16 18 19 19 16 20 15 16 15 13 20 31 28 30 32 38 39 36 33 37 27 25 23 21 22 24 27 29 31 33 35 38 38 40
26 39 39 30 27 25 27 25 27 25 24 22 19 12 14 13 14 19 27 40 36 36 36 35 39 41 40 33 35 28 24 22 22 22 23 25 29 32 33 35 38 40 41 44

GFSNW_700_spd_006.txt.gz
Wind_Speed
10 9 7 4 5 5 5 4 4 5 18 15 17 25 29 22 12 9 19 22 23 16 18 13 8 13 17 22 21 18 17 5 8 15 9 11 13 10 9 4 3 5 2 7
8 7 7 5 4 7 9 6 7 7 7 9 21 28 27 25 11 10 11 14 16 21 20 10 12 12 13 20 20 15 16 7 8 4 6 12 15 15 15 15 11 10 4 4
8 7 8 5 3 8 11 10 6 7 9 21 22 19 18 14 9 9 10 14 16 16 10 9 12 16 13 14 13 10 13 9 7 6 6 6 6 11 11 14 9 14 25 26
9 6 8 3 3 8 11 11 8 10 14 17 14 13 14 11 13 14 14 15 15 11 10 13 16 11 14 11 8 6 6 6 5 7 7 9 11 15 18 23 28 25 36 30
6 3 4 1 3 8 9 13 11 12 13 9 14 13 11 10 12 10 11 13 11 10 13 8 13 10 10 7 7 5 5 3 7 12 11 12 19 26 28 31 34 36 37 41
4 4 1 1 1 6 8 12 15 9 9 6 6 8 7 9 9 10 10 13 11 10 9 8 9 8 7 5 6 7 8 6 4 5 5 9 18 11 12 16 18 23 30 21
6 6 4 5 3 4 8 13 12 14 8 6 8 8 8 11 12 10 11 11 10 9 9 8 7 7 8 10 11 13 10 5 5 8 9 4 3 6 11 15 18 18 23 25
7 8 8 9 8 6 6 9 13 13 14 11 12 12 11 10 9 10 10 9 8 8 8 5 4 3 2 4 7 9 12 15 8 5 7 15 20 19 21 24 23 22 29 27
7 9 10 11 11 11 10 10 10 11 11 16 14 16 14 12 10 8 7 4 4 6 7 8 5 5 5 4 3 5 4 6 13 9 5 5 6 7 12 21 27 2 4 8
9 9 11 13 13 13 13 12 10 9 10 12 15 17 16 13 11 9 10 8 5 7 7 6 6 6 6 4 5 5 6 6 18 20 11 10 14 22 22 10 15 22 26 33
10 10 12 14 15 17 16 16 15 14 13 10 12 15 15 12 12 13 10 10 9 8 5 5 6 6 7 7 8 6 10 7 11 11 7 9 2 7 15 23 29 37 41 41
13 12 12 13 15 17 19 18 17 17 17 12 17 18 19 19 17 15 15 13 10 7 6 6 6 8 9 12 9 13 18 18 7 10 8 11 18 22 32 36 35 38 38 36
15 15 14 15 16 16 19 17 18 20 20 18 20 17 18 21 24 23 21 20 21 19 17 18 20 17 15 11 12 19 19 19 24 23 30 29 27 29 37 41 38 33 32 33
17 16 17 16 18 19 18 18 19 19 19 17 16 11 17 20 22 24 26 24 21 19 18 19 19 19 16 16 20 29 25 25 31 32 32 31 25 24 34 37 40 45 48 50
20 18 18 17 18 19 16 13 11 12 14 11 8 19 25 22 21 19 21 21 21 20 20 22 23 26 22 25 28 31 22 23 22 28 26 30 34 34 38 42 42 42 43 41
22 21 19 19 18 19 18 16 15 14 12 15 15 13 18 19 18 22 23 23 25 24 23 21 24 25 21 16 28 27 21 21 23 31 32 34 35 36 40 42 42 43 44 45
24 20 19 19 19 18 18 17 16 15 17 16 8 9 12 16 19 19 21 22 23 22 21 24 25 24 21 27 34 19 21 21 25 29 31 31 31 33 34 36 39 39 37 35
23 21 19 18 17 17 17 18 16 9 11 12 7 7 10 9 9 12 13 12 12 16 17 23 27 25 26 29 20 21 21 22 23 24 26 29 31 33 35 37 38 36 34 29
22 20 19 18 18 16 14 13 16 16 14 8 10 10 5 9 11 11 12 14 16 21 26 30 24 29 26 25 25 19 18 23 25 25 28 30 32 33 34 35 37 36 33 30
22 20 19 18 16 15 12 13 14 15 20 21 22 16 12 9 8 10 11 11 14 12 15 14 21 33 28 18 17 19 20 21 24 28 30 30 28 30 36 36 37 38 31 29
25 23 20 17 12 12 13 12 10 11 12 15 21 24 27 21 18 15 9 6 6 6 7 9 9 24 23 17 19 22 20 22 25 29 32 33 33 36 32 32 32 26 26 24
25 23 20 17 14 10 9 10 9 9 11 10 10 11 13 15 16 12 8 9 7 8 9 8 14 21 25 22 21 23 23 23 26 29 34 32 25 24 24 22 20 21 22 25
24 22 17 10 12 15 9 12 10 12 10 6 7 7 6 6 9 11 10 7 9 10 9 12 25 24 21 26 23 21 26 30 32 34 36 25 25 24 21 20 20 22 25 27
24 20 15 13 8 9 16 13 12 11 9 7 5 1 3 6 9 11 7 10 9 8 11 30 28 19 15 17 22 30 33 34 33 36 27 26 24 22 21 22 24 27 29 31
23 14 12 18 18 10 7 7 11 5 3 6 8 10 12 12 10 8 9 6 9 8 10 10 16 25 22 26 30 35 39 34 33 31 27 24 23 22 24 26 28 30 33 35
25 19 16 11 16 21 19 11 9 9 8 9 12 17 15 14 10 12 14 12 12 25 27 24 31 38 34 36 42 42 39 32 32 27 24 25 24 25 27 29 31 33 35 38
27 32 28 13 15 16 18 7 7 9 13 16 19 17 13 10 11 15 18 31 32 33 34 35 36 35 37 44 44 42 34 33 29 25 26 25 26 28 30 31 34 36 39 41

GFSNW_700_spd_012.txt.gz
Wind_Speed
10 12 8 6 3 3 2 1 6 3 3 5 8 9 7 11 12 15 33 35 45 32 32 21 10 29 22 32 29 17 18 15 25 22 19 27 25 19 18 6 4 4 1 3
10 11 9 5 4 5 5 4 3 1 4 2 5 11 11 19 15 23 39 26 37 32 22 12 26 24 24 30 29 19 16 11 15 9 15 20 23 26 23 19 10 6 4 3
11 11 10 5 5 10 10 5 1 3 3 7 6 11 11 12 19 28 27 21 25 24 17 15 21 24 21 24 29 16 13 13 13 16 8 16 25 21 20 19 12 15 17 7
12 12 9 5 6 10 12 7 4 1 7 11 14 10 10 11 19 25 28 20 20 18 10 16 20 22 21 21 20 18 14 11 8 10 7 9 12 21 23 25 24 20 18 18
13 13 11 6 7 11 14 10 11 9 10 13 15 10 12 12 17 17 12 25 18 19 7 8 16 15 19 20 18 15 15 11 13 11 10 10 12 15 18 22 24 27 26 28
12 14 13 7 8 12 15 14 16 15 13 13 13 12 12 17 14 15 19 19 20 18 18 13 12 14 16 13 16 16 16 12 12 6 9 11 14 16 20 25 29 24 23 15
11 14 15 10 9 13 16 18 22 19 17 15 14 13 12 14 11 17 19 17 14 15 19 22 19 17 13 15 15 15 12 12 9 5 5 2 6 9 6 3 4 4 6 10
11 13 16 13 11 13 17 22 22 19 18 15 14 11 11 13 8 16 16 15 13 17 20 18 11 10 9 11 12 12 12 11 6 5 8 9 7 5 6 6 4 7 13 14
11 12 15 16 15 14 16 23 23 18 15 17 15 14 12 11 12 14 15 14 16 17 17 12 7 6 7 7 6 14 13 12 11 7 3 5 4 7 5 5 7 13 11 11
11 12 14 17 18 17 16 19 21 21 17 14 15 16 13 13 13 13 15 15 15 14 14 13 7 6 9 5 7 8 11 12 14 12 6 6 10 10 11 7 6 13 16 19
12 12 13 17 19 20 19 19 19 19 20 15 16 16 15 14 13 13 13 15 16 15 14 10 6 7 10 8 8 8 11 11 11 13 8 8 9 11 13 10 12 18 25 32
12 12 12 14 19 21 21 21 20 20 20 16 19 20 20 19 19 17 14 16 13 14 14 12 11 8 9 12 6 14 9 12 7 9 4 9 11 13 15 19 24 30 35 36
14 13 14 13 14 18 22 21 21 21 21 20 19 22 22 23 22 21 20 19 15 16 13 12 10 8 9 11 14 16 16 15 17 17 18 18 17 21 25 30 36 35 37 34
15 13 12 13 13 14 16 21 23 23 20 22 20 24 24 24 24 23 23 21 21 19 18 19 18 15 15 17 18 20 17 18 20 26 24 23 27 29 32 32 31 30 29 28
16 13 11 11 13 13 13 17 20 20 22 14 24 21 25 28 27 28 27 27 27 24 23 21 18 19 19 23 23 23 18 22 23 24 15 19 20 21 23 25 24 25 27 29
17 14 12 12 13 14 14 15 17 17 20 20 15 19 26 23 23 27 27 26 25 25 22 24 21 18 15 12 16 5 10 10 13 15 18 18 19 21 22 23 24 26 28 29
19 16 12 11 11 12 16 13 12 13 15 16 12 14 23 27 30 23 22 26 24 21 21 21 21 17 21 28 32 19 13 14 16 16 17 18 19 20 20 20 23 26 28 30
19 16 13 11 11 11 14 14 13 12 16 15 6 7 13 21 27 27 28 28 24 24 24 25 22 21 24 21 6 11 13 15 15 16 18 19 19 18 19 22 27 29 31 31
20 18 14 12 12 11 12 12 11 11 16 10 10 11 9 13 19 24 19 20 19 20 21 23 17 22 17 8 8 11 13 14 16 14 16 15 15 18 20 27 30 29 29 28
21 20 18 14 13 12 12 12 14 10 13 17 15 15 11 16 18 16 17 13 15 7 14 13 19 32 20 16 19 22 18 15 13 14 13 13 16 19 25 29 29 27 26 27
27 26 21 14 12 15 15 11 15 16 11 16 23 20 16 16 20 17 14 10 10 7 10 13 8 11 10 13 7 8 10 10 10 10 12 16 20 24 28 28 27 26 26 25
33 26 21 17 17 11 12 12 11 10 15 11 20 24 23 17 18 12 12 7 8 5 9 12 5 10 11 5 7 9 11 12 14 17 21 24 26 28 27 26 26 25 23 22
29 25 24 16 14 14 13 17 14 15 11 14 17 24 27 23 16 10 9 9 7 6 9 7 8 14 11 8 9 7 8 13 19 25 29 30 29 27 26 25 24 23 23 24
33 21 22 18 12 15 19 20 18 16 18 16 18 23 21 19 21 9 9 10 8 8 8 8 13 13 14 8 8 12 17 23 26 28 31 32 30 27 26 24 24 24 25 25
24 14 13 22 19 13 18 26 23 21 18 18 21 21 17 22 11 10 8 12 7 9 6 11 13 6 10 15 19 23 27 30 32 31 29 27 26 26 25 25 25 25 26 27
15 16 15 19 23 20 20 25 25 22 24 30 27 15 13 10 7 9 8 7 6 2 7 6 10 16 23 26 26 29 29 28 30 30 27 26 27 26 26 26 26 27 29 30
9 15 21 16 23 21 24 24 25 32 33 30 16 12 9 10 8 10 8 2 8 11 14 18 24 25 26 29 30 29 32 32 30 31 31 31 29 28 27 27 30 30 30 32

GFSNW_700_spd_015.txt.gz
Wind_Speed
12 16 13 13 12 11 8 5 3 0 2 6 2 9 11 17 26 7 11 9 31 29 35 34 5 26 19 38 38 22 21 17 20 26 20 28 28 25 25 14 7 7 3 6
14 14 13 12 11 10 8 6 3 5 2 2 3 7 11 5 10 19 22 21 27 27 32 12 20 27 27 38 36 19 20 9 14 12 20 20 29 30 24 26 14 9 4 4
15 13 14 10 11 9 9 8 4 4 6 2 5 6 12 15 28 13 26 31 30 34 23 14 24 27 31 31 26 19 23 12 16 21 20 27 30 34 30 28 21 16 19 9
16 11 14 9 10 10 13 11 6 5 3 10 11 1 11 19 24 22 33 33 26 24 18 24 28 28 34 26 26 18 14 10 10 17 12 20 26 31 34 31 31 23 22 20
15 11 13 10 10 11 15 16 10 7 9 16 12 6 11 11 28 19 18 30 26 23 23 21 26 20 33 30 26 24 15 8 11 14 14 13 14 17 25 28 28 28 26 24
15 11 12 12 11 12 14 15 9 10 11 16 16 11 10 15 12 13 21 16 15 14 27 19 19 21 19 18 21 22 17 13 15 7 12 11 11 21 20 22 24 24 25 21
15 11 12 13 12 12 15 15 14 15 14 15 15 13 14 17 12 15 25 26 14 13 14 21 22 16 15 15 19 18 15 15 12 6 9 3 9 11 12 14 16 20 21 17
16 11 12 14 14 12 17 18 20 16 14 15 14 14 12 15 10 21 22 22 19 21 19 20 15 15 16 19 20 20 19 17 9 6 10 6 7 11 14 13 13 15 15 14
16 13 12 15 15 14 17 20 25 19 13 14 14 14 15 12 16 21 19 18 17 22 25 17 7 8 8 10 9 18 17 17 16 8 4 5 7 14 15 14 13 17 15 13
17 14 13 15 17 17 16 21 26 23 16 12 15 16 14 15 17 18 19 19 21 21 22 16 8 7 12 6 9 13 19 17 17 15 7 5 11 15 12 9 8 15 15 12
18 15 14 16 18 19 19 19 24 23 21 14 16 15 14 14 15 15 17 19 21 21 17 12 8 8 13 9 9 8 13 13 11 12 7 7 11 15 14 11 10 10 11 15
18 16 14 16 18 21 22 22 21 20 20 14 18 19 17 17 17 14 14 14 14 17 16 12 11 8 9 12 7 14 10 10 7 9 7 7 6 13 12 15 15 17 23 29
19 17 14 15 17 20 23 24 25 23 20 19 17 21 21 21 20 19 18 18 12 18 18 13 10 7 10 9 12 12 14 15 16 14 16 14 13 15 16 19 23 27 31 33
20 18 16 14 17 18 20 24 24 25 23 22 19 21 21 22 22 22 21 20 19 16 17 17 12 11 9 12 13 14 16 15 18 21 19 14 16 17 20 26 30 30 28 28
20 18 16 14 14 16 16 19 25 26 25 15 28 22 24 23 24 23 22 21 20 20 18 17 17 19 17 21 23 28 23 24 23 20 17 20 23 23 22 22 24 25 26 26
20 18 16 15 14 13 15 17 21 25 27 26 16 22 25 26 27 26 25 23 21 22 22 21 24 24 20 12 13 12 15 19 21 24 22 18 18 19 20 22 24 24 24 25
22 19 17 15 14 13 15 13 16 19 21 24 16 17 21 27 24 26 28 28 27 28 31 25 22 21 20 27 30 18 13 10 14 15 15 16 18 20 21 21 21 21 23 27
23 20 18 16 15 14 15 14 12 13 19 19 9 10 14 25 26 23 17 23 26 24 23 23 22 21 21 20 18 14 24 23 21 19 18 19 20 21 20 20 21 24 27 30
24 21 19 18 17 15 15 15 13 14 17 10 10 13 9 14 23 26 25 20 20 19 21 23 20 23 16 11 14 11 10 12 13 15 18 19 19 18 19 21 24 26 29 28
26 24 23 21 20 15 14 14 13 13 21 20 16 15 12 12 18 22 21 16 18 9 20 19 25 36 31 25 13 11 11 15 17 18 17 18 19 21 23 23 25 28 28 27
30 29 26 19 20 16 15 11 13 12 10 17 22 23 15 15 17 19 18 9 9 8 10 13 7 12 14 21 24 22 18 14 14 16 17 19 20 21 24 28 31 29 28 26
34 29 25 23 22 13 12 12 12 12 16 12 21 23 21 19 22 15 12 10 11 6 11 11 6 11 10 12 13 13 14 14 14 14 14 18 22 26 29 28 27 27 26 25
36 31 30 18 15 14 14 21 15 17 16 19 22 26 26 21 21 11 10 9 7 5 9 7 9 14 17 15 13 14 13 12 12 15 20 25 29 30 28 27 27 26 25 25
34 19 23 20 11 15 22 20 22 21 18 18 23 29 27 25 22 8 6 8 6 6 8 9 18 22 21 19 15 11 10 13 18 24 27 29 28 28 26 24 25 26 26 26
19 17 12 19 21 15 16 23 23 21 19 19 28 31 20 28 10 11 9 10 7 10 10 14 20 22 19 17 13 14 17 21 24 27 27 27 27 27 26 27 27 27 27 28
11 17 16 15 23 21 17 20 26 25 23 25 29 23 13 12 8 11 10 10 8 7 11 14 17 19 18 19 21 23 24 25 25 26 27 28 29 29 29 28 27 27 29 30
11 15 27 17 13 21 20 24 29 26 27 35 17 13 12 10 9 10 13 9 9 9 10 11 12 16 20 25 26 25 26 27 27 28 29 30 30 30 29 29 30 31 31 31

GFSNW_700_spd_018.txt.gz
Wind_Speed
14 12 17 14 14 13 10 9 8 10 12 5 12 8 5 16 16 18 13 14 21 38 19 23 33 17 23 30 34 44 25 20 20 28 16 23 26 27 31 16 6 9 4 12
13 11 15 14 11 12 9 8 10 10 14 9 9 3 4 14 19 7 16 13 23 32 24 17 19 29 20 34 37 41 27 12 18 13 21 24 31 32 28 24 23 20 8 5
13 11 13 13 10 11 10 10 6 8 11 11 8 11 7 10 11 10 12 19 20 34 29 19 24 18 28 35 36 33 26 14 20 18 19 29 30 33 32 30 25 20 22 16
14 10 13 12 10 11 11 13 10 9 9 9 9 4 6 20 8 17 23 20 24 28 27 16 26 34 37 40 34 23 24 14 18 16 24 19 36 38 35 35 35 25 28 26
15 11 12 12 11 12 12 17 15 12 9 10 10 3 5 14 24 26 24 26 23 27 24 20 32 31 36 42 37 27 22 10 13 10 19 20 29 30 32 34 37 35 35 24
15 12 13 11 13 13 12 13 14 12 7 13 11 5 4 20 18 21 29 25 22 22 21 22 24 29 32 34 32 26 18 11 13 9 14 12 12 23 25 30 34 34 34 31
16 12 13 12 14 13 12 12 13 12 9 16 13 6 1 14 9 12 29 21 21 18 18 24 23 26 22 21 27 27 20 17 14 7 11 2 12 14 19 23 21 26 28 26
17 13 14 13 16 14 13 13 14 13 12 12 13 11 13 12 8 9 20 19 18 24 21 24 15 15 17 18 26 25 24 22 11 8 13 4 8 14 16 19 19 21 25 23
18 15 15 14 16 15 13 14 16 15 12 9 11 13 13 15 13 17 18 15 14 22 30 24 11 9 9 10 12 21 21 20 17 11 4 6 6 16 17 17 15 19 17 16
20 17 15 15 17 17 16 14 17 17 16 7 10 12 16 15 20 22 23 20 19 22 23 14 16 9 16 8 12 14 19 18 17 13 6 7 11 13 15 15 11 20 20 17
21 18 15 16 17 19 18 15 17 19 20 10 9 13 14 15 20 20 21 20 21 24 20 15 7 7 13 10 11 10 19 15 13 16 10 9 14 19 17 10 8 12 15 16
22 19 16 17 17 20 20 18 17 19 21 13 14 14 16 16 19 18 17 18 18 17 17 12 13 8 9 13 8 13 10 10 7 10 7 7 10 18 18 15 12 12 12 15
23 19 17 17 17 21 22 20 19 18 19 20 16 17 17 20 21 18 16 22 11 23 20 14 10 8 12 10 13 11 13 15 11 11 12 9 9 11 11 11 13 15 18 23
24 20 18 17 16 18 22 23 22 20 20 19 17 19 18 19 21 21 19 21 15 17 17 18 12 11 10 12 9 10 11 11 14 18 16 12 14 15 15 16 19 21 24 23
24 21 19 17 16 16 19 24 24 23 20 11 22 19 19 20 21 21 21 20 19 18 17 18 17 16 13 12 13 14 15 18 20 20 17 15 17 19 20 22 21 21 22 22
26 23 20 17 17 17 16 19 24 24 25 25 14 15 25 21 22 22 22 22 21 21 21 20 22 19 15 10 12 10 13 20 19 21 21 20 21 22 21 18 19 20 20 20
27 24 21 18 18 17 18 13 16 23 25 22 16 16 21 20 25 23 23 22 22 22 21 23 23 22 21 25 26 23 23 19 7 10 13 14 14 14 16 18 19 19 19 21
28 25 22 20 19 18 19 16 11 15 20 19 9 12 14 20 20 22 21 21 22 22 24 26 26 25 25 20 22 21 23 27 26 23 17 14 14 16 17 17 16 17 20 22
29 26 24 22 20 19 18 18 16 14 18 11 11 15 12 16 24 21 18 18 17 19 22 26 22 25 17 15 17 24 23 17 18 18 17 16 16 17 16 16 17 19 21 25
31 29 28 26 24 20 16 17 16 17 23 20 16 15 14 11 19 24 21 17 13 8 17 17 23 34 30 28 26 19 16 10 9 9 12 16 16 14 15 16 18 22 27 29
37 34 30 22 23 19 17 11 12 13 11 16 23 23 17 14 14 19 16 8 11 8 12 12 10 26 30 33 34 32 20 15 14 18 15 11 12 13 15 19 24 28 28 27
40 35 31 24 22 12 13 11 11 10 13 11 16 20 21 16 15 12 14 9 10 6 10 9 8 19 12 13 20 27 28 23 15 11 10 11 12 15 21 26 28 27 27 26
41 34 32 20 18 13 13 18 15 17 13 16 17 22 23 18 17 10 11 11 9 6 10 7 8 11 14 14 15 17 16 13 10 10 11 13 17 23 27 27 27 26 25 25
40 22 25 19 12 16 20 22 22 21 21 16 17 22 21 20 22 8 6 9 7 7 8 9 11 14 19 18 17 14 12 11 11 13 15 19 24 27 26 26 26 26 25 26
22 13 13 20 20 14 19 24 23 21 19 18 24 26 16 23 9 9 8 9 8 11 11 13 14 18 20 18 16 14 14 14 16 17 22 27 28 25 25 26 27 27 27 27
10 14 13 18 22 17 15 18 23 22 23 24 29 21 11 13 8 10 10 7 8 7 13 15 19 22 21 19 18 18 17 18 21 25 27 26 25 25 25 28 29 29 28 28
14 11 21 11 12 18 17 16 22 22 26 36 21 16 13 10 10 11 10 7 9 12 15 18 19 19 19 18 16 17 21 25 25 25 25 24 26 27 28 29 30 29 29 29

GFSNW_700_spd_021.txt.gz
Wind_Speed
18 18 16 17 14 14 12 10 11 11 14 17 35 38 32 21 11 26 31 22 23 34 35 28 22 21 18 28 37 28 23 15 19 23 18 26 29 19 31 15 5 10 2 7
19 17 15 17 14 13 11 10 11 12 12 14 26 25 20 13 17 14 20 23 21 28 39 25 24 26 22 25 40 41 25 12 13 14 16 22 32 28 23 31 15 16 7 5
19 17 16 17 14 14 11 10 6 11 14 17 18 14 12 11 18 9 11 15 18 30 24 15 30 28 28 23 29 35 28 9 24 15 12 24 28 33 31 30 28 23 28 22
19 17 16 17 15 15 12 13 12 12 10 15 16 9 10 9 6 10 14 20 22 37 23 23 28 32 23 24 32 37 26 15 21 20 21 20 28 34 37 39 38 25 31 32
19 18 16 17 16 17 13 15 15 13 13 16 15 8 7 11 11 20 14 22 27 35 24 17 31 33 27 34 36 37 32 18 13 16 19 23 24 33 36 37 37 36 37 34
19 19 17 17 16 19 14 14 15 16 11 12 7 7 7 12 16 14 14 23 23 26 21 10 10 27 27 35 39 28 34 23 22 10 14 17 16 32 30 32 36 38 39 34
20 20 18 18 16 19 15 12 13 13 12 12 7 2 4 16 14 20 22 25 23 22 21 20 17 21 28 19 34 26 26 21 14 8 13 2 13 15 25 29 27 32 37 35
22 21 19 18 16 19 16 13 14 12 10 10 9 8 6 5 11 16 21 18 23 22 27 28 22 21 18 23 38 31 22 20 8 7 15 6 9 17 19 26 29 28 26 28
23 21 20 17 16 18 17 14 14 13 9 6 7 9 9 12 12 11 28 18 23 27 27 19 11 7 11 13 17 29 28 26 22 12 5 7 9 17 14 12 17 20 23 22
24 22 19 18 16 18 18 14 14 15 13 9 7 10 13 9 9 16 21 22 23 27 23 22 10 5 16 13 16 23 29 24 24 19 9 6 11 8 12 13 9 14 19 16
24 22 20 19 16 18 19 15 14 15 15 7 7 11 14 11 12 13 18 25 19 23 19 13 8 7 12 11 16 17 25 18 18 19 11 12 16 12 13 11 9 7 14 17
25 22 20 18 17 19 20 16 15 17 16 13 11 11 13 13 16 15 13 15 18 17 15 11 10 9 14 14 10 15 14 16 14 13 9 9 11 19 21 14 8 8 12 13
25 22 20 19 17 19 20 16 16 16 17 15 13 14 14 16 17 15 16 18 9 17 22 13 10 7 12 12 15 15 15 19 12 13 12 10 10 15 16 15 14 11 11 13
26 23 21 20 18 20 21 20 18 17 15 16 17 18 16 17 18 20 18 17 16 15 18 17 13 8 8 11 9 14 13 14 14 13 11 11 12 14 14 14 13 13 14 16
26 24 22 21 19 21 23 24 20 20 19 9 17 16 19 19 20 20 19 18 22 16 16 16 15 13 10 9 11 12 11 10 10 13 13 12 12 14 15 15 15 17 16 14
27 25 23 21 21 20 23 24 26 23 23 18 9 16 20 20 21 21 21 21 19 21 20 18 17 16 15 9 18 18 16 13 11 15 14 18 17 16 15 15 16 14 13 13
28 26 23 23 22 20 23 20 22 27 22 20 15 10 15 21 21 20 21 22 22 20 21 21 20 20 21 24 23 17 15 16 17 15 8 14 17 18 18 15 12 12 13 13
29 27 24 23 22 21 23 16 13 21 23 19 10 12 14 19 21 22 22 20 21 22 23 24 22 21 24 23 26 25 21 17 20 17 15 13 12 11 11 10 11 11 12 14
30 26 24 24 25 24 23 19 16 21 22 12 12 17 13 17 19 19 19 23 21 19 21 24 20 26 20 18 23 22 24 20 19 18 17 18 16 12 10 10 9 11 14 15
31 29 27 28 27 25 21 21 17 19 27 22 13 18 15 15 22 21 17 12 15 9 16 15 25 37 37 32 28 19 15 15 10 13 16 15 11 10 9 8 10 12 15 20
37 35 33 27 27 23 19 13 16 15 11 17 21 19 16 16 20 22 16 9 9 6 10 14 9 25 27 29 29 27 22 15 11 13 10 10 10 8 8 9 11 16 20 22
43 42 30 25 27 13 13 12 12 11 15 12 22 22 19 17 17 12 13 9 8 6 7 9 8 22 19 16 25 30 26 21 17 14 10 8 7 8 8 11 17 21 23 24
43 35 32 21 18 15 13 19 16 16 14 22 22 24 24 19 15 9 11 10 9 6 7 8 10 5 8 15 18 26 27 24 23 17 13 9 9 10 13 16 22 24 24 24
40 23 27 18 13 16 15 22 24 24 18 12 17 23 21 19 18 8 7 10 7 7 8 7 8 10 13 13 14 16 19 19 19 16 12 10 12 14 18 23 26 25 25 25
24 15 13 23 18 17 23 23 23 23 20 13 19 24 12 19 10 9 8 9 7 9 6 8 13 17 18 19 20 21 19 16 12 10 10 12 17 20 25 27 25 25 25 26
12 13 11 20 21 17 18 26 26 24 23 23 24 20 10 11 8 11 10 7 7 4 4 9 16 22 23 21 19 17 13 8 6 10 15 19 23 25 25 25 25 25 27 29
6 11 16 9 16 17 13 20 24 25 27 33 22 15 12 9 9 11 11 9 7 5 8 15 20 23 24 21 16 10 8 10 14 19 24 25 24 23 23 24 26 27 29 29

GFSNW_700_spd_024.txt.gz
Wind_Speed
26 24 23 22 18 16 17 18 17 14 9 19 24 33 35 34 21 19 24 27 21 23 28 26 23 20 12 30 30 21 21 15 9 13 13 16 18 19 22 10 6 5 2 2
25 25 24 22 17 16 17 18 15 15 11 21 25 26 29 35 32 24 25 28 20 21 30 19 22 20 23 27 36 19 19 10 14 7 9 22 25 23 23 17 10 15 11 4
26 26 25 22 17 15 17 17 9 15 19 19 23 21 23 28 17 17 17 22 22 22 29 20 25 19 32 21 31 28 18 11 19 18 10 21 23 32 33 25 24 17 20 12
28 25 25 23 18 17 19 18 16 17 14 16 14 17 21 13 9 20 15 22 27 28 25 27 16 25 30 25 27 35 19 9 16 15 11 12 20 27 32 34 30 23 24 26
27 26 25 23 19 18 22 20 19 16 19 15 17 16 10 7 7 11 20 14 29 27 25 38 29 30 31 33 27 43 25 13 10 15 18 21 20 20 25 35 35 32 27 25
26 26 25 23 20 20 23 20 19 19 16 11 15 11 10 7 17 15 16 15 29 29 19 12 17 27 27 18 33 43 33 18 16 7 12 15 16 28 29 29 37 37 33 33
25 27 26 24 21 20 21 18 17 19 20 15 16 6 5 18 8 11 17 25 33 30 15 7 18 28 19 8 31 34 29 21 14 5 8 5 11 17 26 32 31 35 35 33
25 27 27 25 20 19 21 18 16 16 16 11 12 7 4 14 14 22 22 20 28 25 21 20 21 23 19 25 34 27 29 26 14 7 11 9 11 16 20 24 28 29 29 28
25 29 26 24 19 18 21 19 18 16 15 8 8 11 9 13 11 18 26 22 29 25 29 25 9 7 10 15 22 27 19 26 21 12 6 6 8 14 12 14 20 19 24 28
21 28 26 24 20 18 20 20 17 17 16 9 7 11 7 10 12 10 25 29 31 33 27 17 14 6 13 12 19 25 24 18 23 18 6 8 13 8 7 10 8 10 16 19
23 27 25 24 20 19 21 18 17 17 17 9 9 9 9 8 8 16 31 30 28 33 16 19 12 8 14 10 15 26 30 16 12 15 10 12 13 13 13 11 10 8 10 14
28 27 26 24 21 19 22 20 18 18 19 11 10 11 10 11 9 9 16 15 16 21 17 10 10 10 14 15 14 21 21 25 16 17 14 15 13 18 21 16 9 5 8 12
28 27 26 24 21 20 23 20 17 18 19 16 14 13 12 13 12 10 9 14 10 9 15 14 11 7 13 16 16 19 21 29 20 20 20 15 13 13 14 13 9 7 8 11
28 28 26 24 21 20 24 22 18 17 19 16 18 16 15 14 12 15 12 18 8 14 15 15 10 10 9 13 11 19 19 21 23 20 12 12 12 12 12 12 12 12 12 12
29 28 26 24 21 23 25 23 20 22 20 12 17 19 18 17 16 14 16 15 17 13 16 17 15 14 9 10 12 14 16 16 19 15 12 9 8 11 13 14 14 14 14 14
28 27 26 24 21 26 23 24 22 28 25 13 10 21 20 20 20 19 17 17 16 19 19 14 17 13 12 7 14 15 13 13 11 11 10 9 13 15 18 18 18 17 15 12
35 27 26 24 24 29 29 25 27 22 22 16 14 12 16 24 22 21 20 20 19 18 18 20 19 17 18 21 19 12 12 14 12 13 12 10 12 15 18 19 18 15 12 11
35 30 28 25 24 30 30 27 25 27 21 18 10 10 14 22 28 23 21 21 21 21 21 20 20 22 21 23 24 25 22 20 18 17 14 11 11 15 18 18 16 12 10 10
35 31 29 25 25 26 27 21 18 25 26 13 14 15 13 17 24 24 22 22 19 17 21 22 20 25 18 19 21 21 18 15 14 15 16 17 17 15 14 14 12 10 9 8
33 33 32 29 29 23 21 22 17 19 28 24 19 19 20 18 22 23 21 16 18 8 18 18 26 38 35 33 26 16 15 14 14 11 15 18 20 16 13 12 10 8 7 8
39 40 35 28 31 25 24 14 18 18 13 21 30 20 21 20 22 21 17 8 10 8 11 14 10 29 26 28 36 32 23 20 16 12 13 15 15 14 12 11 9 7 8 12
41 43 32 30 29 14 12 14 13 12 17 12 25 27 20 20 21 17 16 10 10 6 8 10 8 20 16 16 21 25 25 24 15 14 16 11 13 14 12 9 8 9 12 16
44 34 33 25 20 15 14 19 16 17 13 23 19 27 25 22 19 11 11 10 8 7 8 8 12 9 8 14 20 27 27 21 20 22 11 11 12 11 9 9 11 13 16 19
33 23 23 19 13 17 17 23 24 23 18 12 22 28 25 21 20 9 7 10 7 7 8 8 9 12 11 16 21 25 25 22 21 18 13 13 10 9 10 12 15 17 20 19
17 19 15 24 18 19 21 17 25 28 23 19 23 28 16 20 9 10 9 9 7 10 6 7 10 11 13 16 20 26 25 23 19 16 13 10 10 12 14 16 19 20 19 19
13 12 13 23 22 17 22 26 20 25 24 24 26 20 9 11 8 10 9 7 7 6 6 8 13 17 18 19 25 27 23 19 16 12 10 10 13 15 18 20 19 20 20 21
10 14 12 16 23 19 18 24 27 28 29 32 19 14 11 8 9 10 11 10 9 7 9 14 19 21 22 24 25 23 18 14 9 8 10 13 16 17 18 19 20 21 21 23

GFSNW_700_spd_027.txt.gz
Wind_Speed
35 29 24 27 22 21 23 21 22 20 17 22 30 37 34 39 31 17 23 23 21 25 24 27 24 21 18 20 19 24 14 8 6 10 13 23 18 24 16 14 6 5 5 6
31 28 26 29 24 23 24 23 22 18 17 23 31 31 37 36 32 19 18 22 25 16 24 25 22 20 19 12 25 16 11 3 6 8 10 15 18 15 24 14 4 15 8 7
31 31 31 29 25 24 22 25 15 18 22 28 25 28 33 35 33 33 25 26 21 18 24 22 22 19 17 14 25 18 8 6 10 4 6 20 18 20 19 22 18 14 18 6
37 30 29 28 26 25 22 27 22 22 19 25 17 23 30 24 20 13 14 21 23 23 26 27 17 20 17 21 28 23 8 7 11 7 3 9 17 22 23 27 26 19 20 19
36 32 30 32 25 25 29 29 27 22 23 17 20 18 27 29 29 22 20 15 24 25 26 31 23 24 23 16 27 26 16 7 5 12 9 10 12 19 24 29 29 28 21 18
38 26 28 30 27 29 30 30 27 21 16 12 16 19 22 11 8 11 17 18 25 26 23 25 13 20 23 12 31 31 25 11 5 9 8 8 16 27 25 24 30 27 32 29
36 33 30 29 27 27 27 29 26 26 22 15 17 21 23 9 10 10 12 15 23 21 21 24 17 19 19 11 20 26 33 21 7 4 7 8 9 10 22 29 27 26 28 22
33 39 34 29 26 25 25 25 25 25 19 14 15 18 15 10 5 11 20 25 27 21 14 25 24 17 15 18 20 22 29 24 12 7 12 9 13 15 16 23 26 29 26 23
19 31 27 28 24 23 24 23 25 24 17 12 15 16 9 10 8 16 24 27 24 26 19 24 11 10 11 12 17 30 28 23 23 11 5 4 5 9 13 10 18 16 17 26
30 33 23 25 22 22 22 24 25 22 20 17 10 14 10 5 10 14 23 25 28 24 21 15 12 7 20 12 18 24 29 26 22 14 8 9 13 12 4 8 3 4 11 16
31 32 28 25 23 22 22 24 24 22 18 13 15 9 7 11 6 7 17 30 30 32 23 14 6 7 13 7 20 27 26 17 17 16 10 9 8 9 10 8 7 5 5 9
33 29 29 23 22 22 22 24 22 19 18 13 11 9 11 12 9 12 21 28 34 26 22 16 11 8 16 12 11 22 20 20 12 17 21 14 12 12 13 17 14 10 8 8
36 30 29 21 23 23 24 24 20 18 18 16 13 12 11 13 8 8 19 29 14 31 29 18 15 8 16 12 9 19 25 26 23 18 23 24 18 16 13 12 11 8 8 9
32 31 28 26 23 24 22 25 20 19 16 18 13 13 11 13 11 7 4 15 8 4 21 17 12 13 13 13 8 14 23 23 30 34 27 14 17 16 13 12 11 10 9 10
35 31 29 25 23 23 23 25 20 20 20 12 19 16 14 12 13 12 9 14 10 9 9 8 9 9 6 12 16 18 19 20 23 21 22 20 13 11 12 13 13 12 11 12
33 30 29 25 24 21 26 23 25 27 24 13 12 18 18 14 13 15 16 15 17 17 14 16 16 14 12 8 13 14 13 14 17 17 13 13 12 12 15 17 17 17 16 15
38 31 29 26 26 25 31 17 21 22 28 24 8 9 21 19 17 16 17 17 17 17 18 19 16 13 16 19 17 10 13 14 15 15 14 13 11 11 15 19 19 17 16 15
34 30 28 26 25 29 26 23 22 17 26 22 11 9 15 20 22 19 18 18 17 18 18 18 19 19 21 21 23 23 19 16 18 18 16 14 13 12 16 18 20 19 16 14
36 32 29 25 29 34 20 18 19 21 23 10 9 9 10 12 20 23 17 18 18 16 19 23 18 23 17 17 22 23 21 20 20 22 20 18 16 15 16 18 19 18 17 14
38 39 29 29 32 36 26 21 17 21 24 21 11 15 16 11 17 18 18 14 16 9 18 18 25 37 33 31 29 22 14 16 18 20 19 18 19 17 18 18 19 17 14 11
42 44 40 34 30 24 26 12 15 14 13 20 32 23 17 18 15 20 16 8 8 6 10 11 9 26 27 27 35 35 25 18 19 19 18 15 12 15 19 18 16 14 12 9
47 46 34 32 32 16 14 14 12 12 17 12 26 33 26 15 16 13 15 8 7 6 7 8 9 27 20 18 17 30 30 23 20 19 17 14 16 19 18 17 16 13 10 9
41 41 28 30 20 16 14 19 16 18 10 20 16 26 28 18 18 11 9 10 8 5 7 7 12 9 9 11 16 21 28 26 20 21 16 17 15 17 17 15 11 9 9 12
35 29 22 17 15 18 18 27 26 23 15 15 22 27 26 20 22 9 8 9 6 6 8 10 14 13 14 13 14 19 23 24 25 21 20 16 18 17 13 10 9 10 12 15
18 19 21 28 20 21 22 13 20 23 19 14 22 27 17 22 9 10 9 9 7 10 10 12 11 13 13 13 17 22 23 25 21 24 18 17 15 12 9 8 10 13 17 17
13 10 18 31 24 18 18 26 22 22 25 24 27 20 10 11 8 11 10 7 7 7 7 8 9 10 13 18 24 25 24 21 21 21 17 14 10 7 8 11 14 16 17 18
8 12 14 22 26 19 18 24 25 21 25 33 19 15 11 9 9 10 11 10 8 6 7 8 10 11 14 21 27 25 22 22 17 15 11 7 7 9 11 14 16 18 18 18